iso_date,Year,Hour,Min,DOY,POS_DOY,Lat,Lon,BP,Ts,Ta,has_bp,has_ts,has_ta,BuoyID,Buoy_Type,Buoy_Owner,Logistics,Hemisphere
2022-08-01T00:00:00Z,2022,0,0,213.0,213.0,80.72631,7.3263,-999.0,-0.2,-999.0,no,yes,no,300534062172030,NOMAD,AWI/USIABP,PolarStern,North
2022-08-01T01:00:02Z,2022,1,0,213.0417,213.0417,80.72664,7.30891,-999.0,-0.1,-999.0,no,yes,no,300534062172030,NOMAD,AWI/USIABP,PolarStern,North
2022-08-01T01:59:57Z,2022,2,0,213.0833,213.0833,80.72868,7.28714,-999.0,-0.1,-999.0,no,yes,no,300534062172030,NOMAD,AWI/USIABP,PolarStern,North
2022-08-01T03:00:00Z,2022,3,0,213.125,213.125,80.7336,7.28929,-999.0,-0.2,-999.0,no,yes,no,300534062172030,NOMAD,AWI/USIABP,PolarStern,North
2022-08-01T04:00:02Z,2022,4,0,213.1667,213.1667,80.73897,7.31102,-999.0,-0.2,-999.0,no,yes,no,300534062172030,NOMAD,AWI/USIABP,PolarStern,North
2022-08-01T04:59:57Z,2022,5,0,213.2083,213.2083,80.74232,7.33578,-999.0,0.1,-999.0,no,yes,no,300534062172030,NOMAD,AWI/USIABP,PolarStern,North
2022-08-01T06:00:00Z,2022,6,0,213.25,213.25,80.74317,7.36878,-999.0,0.0,-999.0,no,yes,no,300534062172030,NOMAD,AWI/USIABP,PolarStern,North
2022-08-01T07:00:02Z,2022,7,0,213.2917,213.2917,80.74172,7.39979,-999.0,0.4,-999.0,no,yes,no,300534062172030,NOMAD,AWI/USIABP,PolarStern,North
2022-08-01T07:59:57Z,2022,8,0,213.3333,213.3333,80.7392,7.4076,-999.0,0.0,-999.0,no,yes,no,300534062172030,NOMAD,AWI/USIABP,PolarStern,North
2022-08-01T09:00:00Z,2022,9,0,213.375,213.375,80.73338,7.41724,-999.0,0.2,-999.0,no,yes,no,300534062172030,NOMAD,AWI/USIABP,PolarStern,North
2022-08-01T10:00:02Z,2022,10,0,213.4167,213.4167,80.72582,7.40585,-999.0,0.1,-999.0,no,yes,no,300534062172030,NOMAD,AWI/USIABP,PolarStern,North
2022-08-01T10:59:57Z,2022,11,0,213.4583,213.4583,80.71888,7.37022,-999.0,0.1,-999.0,no,yes,no,300534062172030,NOMAD,AWI/USIABP,PolarStern,North
2022-08-01T12:00:00Z,2022,12,0,213.5,213.5,80.71352,7.32459,-999.0,0.2,-999.0,no,yes,no,300534062172030,NOMAD,AWI/USIABP,PolarStern,North
2022-08-01T13:00:02Z,2022,13,0,213.5417,213.5417,80.70965,7.27811,-999.0,0.3,-999.0,no,yes,no,300534062172030,NOMAD,AWI/USIABP,PolarStern,North
2022-08-01T13:59:57Z,2022,14,0,213.5833,213.5833,80.7106,7.22589,-999.0,0.3,-999.0,no,yes,no,300534062172030,NOMAD,AWI/USIABP,PolarStern,North
2022-08-01T15:00:00Z,2022,15,0,213.625,213.625,80.71706,7.17887,-999.0,0.3,-999.0,no,yes,no,300534062172030,NOMAD,AWI/USIABP,PolarStern,North
2022-08-01T16:00:02Z,2022,16,0,213.6667,213.6667,80.7242,7.16343,-999.0,0.3,-999.0,no,yes,no,300534062172030,NOMAD,AWI/USIABP,PolarStern,North
2022-08-01T16:59:57Z,2022,17,0,213.7083,213.7083,80.73147,7.16666,-999.0,0.3,-999.0,no,yes,no,300534062172030,NOMAD,AWI/USIABP,PolarStern,North
2022-08-01T18:00:00Z,2022,18,0,213.75,213.75,80.73657,7.16175,-999.0,0.3,-999.0,no,yes,no,300534062172030,NOMAD,AWI/USIABP,PolarStern,North
2022-08-01T19:00:02Z,2022,19,0,213.7917,213.7917,80.73936,7.15722,-999.0,0.4,-999.0,no,yes,no,300534062172030,NOMAD,AWI/USIABP,PolarStern,North
2022-08-01T19:59:57Z,2022,20,0,213.8333,213.8333,80.7388,7.16476,-999.0,0.4,-999.0,no,yes,no,300534062172030,NOMAD,AWI/USIABP,PolarStern,North
2022-08-01T21:00:00Z,2022,21,0,213.875,213.875,80.73669,7.1551,-999.0,0.5,-999.0,no,yes,no,300534062172030,NOMAD,AWI/USIABP,PolarStern,North
2022-08-01T22:00:02Z,2022,22,0,213.9167,213.9167,80.73443,7.12635,-999.0,0.6,-999.0,no,yes,no,300534062172030,NOMAD,AWI/USIABP,PolarStern,North
2022-08-01T22:59:57Z,2022,23,0,213.9583,213.9583,80.73284,7.0824,-999.0,0.6,-999.0,no,yes,no,300534062172030,NOMAD,AWI/USIABP,PolarStern,North
2022-08-02T00:00:00Z,2022,0,0,214.0,214.0,80.73251,7.03571,-999.0,0.7,-999.0,no,yes,no,300534062172030,NOMAD,AWI/USIABP,PolarStern,North
2022-08-02T01:00:02Z,2022,1,0,214.0417,214.0417,80.73442,6.98489,-999.0,0.7,-999.0,no,yes,no,300534062172030,NOMAD,AWI/USIABP,PolarStern,North
2022-08-02T01:59:57Z,2022,2,0,214.0833,214.0833,80.73978,6.9489,-999.0,0.8,-999.0,no,yes,no,300534062172030,NOMAD,AWI/USIABP,PolarStern,North
2022-08-02T03:00:00Z,2022,3,0,214.125,214.125,80.74702,6.92683,-999.0,0.8,-999.0,no,yes,no,300534062172030,NOMAD,AWI/USIABP,PolarStern,North
2022-08-02T04:00:02Z,2022,4,0,214.1667,214.1667,80.75281,6.91736,-999.0,0.8,-999.0,no,yes,no,300534062172030,NOMAD,AWI/USIABP,PolarStern,North
2022-08-02T04:59:57Z,2022,5,0,214.2083,214.2083,80.7627,6.93025,-999.0,0.8,-999.0,no,yes,no,300534062172030,NOMAD,AWI/USIABP,PolarStern,North
2022-08-02T06:00:00Z,2022,6,0,214.25,214.25,80.76543,6.95569,-999.0,0.8,-999.0,no,yes,no,300534062172030,NOMAD,AWI/USIABP,PolarStern,North
2022-08-02T07:00:02Z,2022,7,0,214.2917,214.2917,80.7649,6.99034,-999.0,0.9,-999.0,no,yes,no,300534062172030,NOMAD,AWI/USIABP,PolarStern,North
2022-08-02T07:59:57Z,2022,8,0,214.3333,214.3333,80.76074,7.00189,-999.0,1.0,-999.0,no,yes,no,300534062172030,NOMAD,AWI/USIABP,PolarStern,North
2022-08-02T09:00:00Z,2022,9,0,214.375,214.375,80.75527,6.99153,-999.0,0.3,-999.0,no,yes,no,300534062172030,NOMAD,AWI/USIABP,PolarStern,North
2022-08-02T10:00:02Z,2022,10,0,214.4167,214.4167,80.74654,6.95481,-999.0,0.5,-999.0,no,yes,no,300534062172030,NOMAD,AWI/USIABP,PolarStern,North
2022-08-02T10:59:57Z,2022,11,0,214.4583,214.4583,80.73924,6.89186,-999.0,0.6,-999.0,no,yes,no,300534062172030,NOMAD,AWI/USIABP,PolarStern,North
2022-08-02T12:00:00Z,2022,12,0,214.5,214.5,80.73452,6.81577,-999.0,0.5,-999.0,no,yes,no,300534062172030,NOMAD,AWI/USIABP,PolarStern,North
2022-08-02T13:00:02Z,2022,13,0,214.5417,214.5417,80.73324,6.74836,-999.0,-0.2,-999.0,no,yes,no,300534062172030,NOMAD,AWI/USIABP,PolarStern,North
2022-08-02T13:59:57Z,2022,14,0,214.5833,214.5833,80.73597,6.69115,-999.0,0.1,-999.0,no,yes,no,300534062172030,NOMAD,AWI/USIABP,PolarStern,North
2022-08-02T15:00:00Z,2022,15,0,214.625,214.625,80.73937,6.65098,-999.0,0.1,-999.0,no,yes,no,300534062172030,NOMAD,AWI/USIABP,PolarStern,North
2022-08-02T16:00:02Z,2022,16,0,214.6667,214.6667,80.74318,6.61914,-999.0,0.1,-999.0,no,yes,no,300534062172030,NOMAD,AWI/USIABP,PolarStern,North
2022-08-02T16:59:57Z,2022,17,0,214.7083,214.7083,80.74981,6.58461,-999.0,0.0,-999.0,no,yes,no,300534062172030,NOMAD,AWI/USIABP,PolarStern,North
2022-08-02T18:00:00Z,2022,18,0,214.75,214.75,80.7558,6.5625,-999.0,0.0,-999.0,no,yes,no,300534062172030,NOMAD,AWI/USIABP,PolarStern,North
2022-08-02T19:00:02Z,2022,19,0,214.7917,214.7917,80.76105,6.53839,-999.0,0.0,-999.0,no,yes,no,300534062172030,NOMAD,AWI/USIABP,PolarStern,North
2022-08-02T19:59:57Z,2022,20,0,214.8333,214.8333,80.76555,6.51682,-999.0,0.0,-999.0,no,yes,no,300534062172030,NOMAD,AWI/USIABP,PolarStern,North
2022-08-02T21:00:00Z,2022,21,0,214.875,214.875,80.76911,6.50025,-999.0,-0.1,-999.0,no,yes,no,300534062172030,NOMAD,AWI/USIABP,PolarStern,North
2022-08-02T22:00:02Z,2022,22,0,214.9167,214.9167,80.77116,6.47232,-999.0,-0.1,-999.0,no,yes,no,300534062172030,NOMAD,AWI/USIABP,PolarStern,North
2022-08-02T22:59:57Z,2022,23,0,214.9583,214.9583,80.77321,6.43564,-999.0,-0.2,-999.0,no,yes,no,300534062172030,NOMAD,AWI/USIABP,PolarStern,North
2022-08-03T00:00:00Z,2022,0,0,215.0,215.0,80.77657,6.39736,-999.0,-0.2,-999.0,no,yes,no,300534062172030,NOMAD,AWI/USIABP,PolarStern,North
2022-08-03T01:00:02Z,2022,1,0,215.0417,215.0417,80.78117,6.34813,-999.0,-0.3,-999.0,no,yes,no,300534062172030,NOMAD,AWI/USIABP,PolarStern,North
2022-08-03T01:59:57Z,2022,2,0,215.0833,215.0833,80.78616,6.30741,-999.0,-0.2,-999.0,no,yes,no,300534062172030,NOMAD,AWI/USIABP,PolarStern,North
2022-08-03T03:00:00Z,2022,3,0,215.125,215.125,80.79576,6.30284,-999.0,-0.3,-999.0,no,yes,no,300534062172030,NOMAD,AWI/USIABP,PolarStern,North
2022-08-03T04:00:02Z,2022,4,0,215.1667,215.1667,80.80406,6.32012,-999.0,-0.4,-999.0,no,yes,no,300534062172030,NOMAD,AWI/USIABP,PolarStern,North
2022-08-03T04:59:57Z,2022,5,0,215.2083,215.2083,80.80952,6.34773,-999.0,-0.2,-999.0,no,yes,no,300534062172030,NOMAD,AWI/USIABP,PolarStern,North
2022-08-03T06:00:00Z,2022,6,0,215.25,215.25,80.81043,6.36479,-999.0,-0.3,-999.0,no,yes,no,300534062172030,NOMAD,AWI/USIABP,PolarStern,North
2022-08-03T07:00:02Z,2022,7,0,215.2917,215.2917,80.80861,6.37032,-999.0,-0.3,-999.0,no,yes,no,300534062172030,NOMAD,AWI/USIABP,PolarStern,North
2022-08-03T07:59:57Z,2022,8,0,215.3333,215.3333,80.8091,6.37095,-999.0,-0.4,-999.0,no,yes,no,300534062172030,NOMAD,AWI/USIABP,PolarStern,North
2022-08-03T09:00:00Z,2022,9,0,215.375,215.375,80.80509,6.35593,-999.0,-0.2,-999.0,no,yes,no,300534062172030,NOMAD,AWI/USIABP,PolarStern,North
2022-08-03T10:00:02Z,2022,10,0,215.4167,215.4167,80.80071,6.32602,-999.0,-0.2,-999.0,no,yes,no,300534062172030,NOMAD,AWI/USIABP,PolarStern,North
2022-08-03T10:59:57Z,2022,11,0,215.4583,215.4583,80.79801,6.29723,-999.0,-0.2,-999.0,no,yes,no,300534062172030,NOMAD,AWI/USIABP,PolarStern,North
2022-08-03T12:00:00Z,2022,12,0,215.5,215.5,80.79628,6.26927,-999.0,-0.2,-999.0,no,yes,no,300534062172030,NOMAD,AWI/USIABP,PolarStern,North
2022-08-03T13:00:02Z,2022,13,0,215.5417,215.5417,80.79553,6.23173,-999.0,-0.1,-999.0,no,yes,no,300534062172030,NOMAD,AWI/USIABP,PolarStern,North
2022-08-03T13:59:57Z,2022,14,0,215.5833,215.5833,80.7974,6.21334,-999.0,-0.2,-999.0,no,yes,no,300534062172030,NOMAD,AWI/USIABP,PolarStern,North
2022-08-03T15:00:00Z,2022,15,0,215.625,215.625,80.7984,6.19873,-999.0,-0.2,-999.0,no,yes,no,300534062172030,NOMAD,AWI/USIABP,PolarStern,North
2022-08-03T16:00:02Z,2022,16,0,215.6667,215.6667,80.79934,6.18861,-999.0,-0.2,-999.0,no,yes,no,300534062172030,NOMAD,AWI/USIABP,PolarStern,North
2022-08-03T16:59:57Z,2022,17,0,215.7083,215.7083,80.79941,6.18443,-999.0,-0.3,-999.0,no,yes,no,300534062172030,NOMAD,AWI/USIABP,PolarStern,North
2022-08-03T18:00:00Z,2022,18,0,215.75,215.75,80.79848,6.17748,-999.0,-0.3,-999.0,no,yes,no,300534062172030,NOMAD,AWI/USIABP,PolarStern,North
2022-08-03T19:00:02Z,2022,19,0,215.7917,215.7917,80.79897,6.17569,-999.0,-0.2,-999.0,no,yes,no,300534062172030,NOMAD,AWI/USIABP,PolarStern,North
2022-08-03T19:59:57Z,2022,20,0,215.8333,215.8333,80.79958,6.17039,-999.0,-0.3,-999.0,no,yes,no,300534062172030,NOMAD,AWI/USIABP,PolarStern,North
2022-08-03T21:00:00Z,2022,21,0,215.875,215.875,80.79769,6.15289,-999.0,-0.2,-999.0,no,yes,no,300534062172030,NOMAD,AWI/USIABP,PolarStern,North
2022-08-03T22:00:02Z,2022,22,0,215.9167,215.9167,80.79495,6.12479,-999.0,-0.2,-999.0,no,yes,no,300534062172030,NOMAD,AWI/USIABP,PolarStern,North
2022-08-03T22:59:57Z,2022,23,0,215.9583,215.9583,80.79442,6.06918,-999.0,-0.2,-999.0,no,yes,no,300534062172030,NOMAD,AWI/USIABP,PolarStern,North
2022-08-04T00:00:00Z,2022,0,0,216.0,216.0,80.79524,6.01008,-999.0,0.0,-999.0,no,yes,no,300534062172030,NOMAD,AWI/USIABP,PolarStern,North
2022-08-04T01:00:02Z,2022,1,0,216.0417,216.0417,80.79956,5.96562,-999.0,0.1,-999.0,no,yes,no,300534062172030,NOMAD,AWI/USIABP,PolarStern,North
2022-08-04T01:59:57Z,2022,2,0,216.0833,216.0833,80.80331,5.9387,-999.0,0.1,-999.0,no,yes,no,300534062172030,NOMAD,AWI/USIABP,PolarStern,North
2022-08-04T03:00:00Z,2022,3,0,216.125,216.125,80.80827,5.93965,-999.0,0.0,-999.0,no,yes,no,300534062172030,NOMAD,AWI/USIABP,PolarStern,North
2022-08-04T04:00:02Z,2022,4,0,216.1667,216.1667,80.81036,5.95357,-999.0,0.1,-999.0,no,yes,no,300534062172030,NOMAD,AWI/USIABP,PolarStern,North
2022-08-04T04:59:57Z,2022,5,0,216.2083,216.2083,80.81006,5.96622,-999.0,0.1,-999.0,no,yes,no,300534062172030,NOMAD,AWI/USIABP,PolarStern,North
2022-08-04T06:00:00Z,2022,6,0,216.25,216.25,80.80863,5.97779,-999.0,0.0,-999.0,no,yes,no,300534062172030,NOMAD,AWI/USIABP,PolarStern,North
2022-08-04T07:00:02Z,2022,7,0,216.2917,216.2917,80.8034,5.99224,-999.0,0.0,-999.0,no,yes,no,300534062172030,NOMAD,AWI/USIABP,PolarStern,North
2022-08-04T07:59:57Z,2022,8,0,216.3333,216.3333,80.79586,5.98016,-999.0,0.0,-999.0,no,yes,no,300534062172030,NOMAD,AWI/USIABP,PolarStern,North
2022-08-04T09:00:00Z,2022,9,0,216.375,216.375,80.78677,5.93014,-999.0,-0.1,-999.0,no,yes,no,300534062172030,NOMAD,AWI/USIABP,PolarStern,North
2022-08-04T10:00:02Z,2022,10,0,216.4167,216.4167,80.78036,5.87529,-999.0,-0.2,-999.0,no,yes,no,300534062172030,NOMAD,AWI/USIABP,PolarStern,North
2022-08-04T10:59:57Z,2022,11,0,216.4583,216.4583,80.7758,5.83434,-999.0,0.0,-999.0,no,yes,no,300534062172030,NOMAD,AWI/USIABP,PolarStern,North
2022-08-04T12:00:00Z,2022,12,0,216.5,216.5,80.77032,5.78582,-999.0,-0.5,-999.0,no,yes,no,300534062172030,NOMAD,AWI/USIABP,PolarStern,North
2022-08-04T13:00:02Z,2022,13,0,216.5417,216.5417,80.76491,5.73372,-999.0,-0.2,-999.0,no,yes,no,300534062172030,NOMAD,AWI/USIABP,PolarStern,North
2022-08-04T13:59:57Z,2022,14,0,216.5833,216.5833,80.76174,5.68664,-999.0,0.0,-999.0,no,yes,no,300534062172030,NOMAD,AWI/USIABP,PolarStern,North
2022-08-04T15:00:00Z,2022,15,0,216.625,216.625,80.7608,5.69156,-999.0,0.1,-999.0,no,yes,no,300534062172030,NOMAD,AWI/USIABP,PolarStern,North
2022-08-04T16:00:02Z,2022,16,0,216.6667,216.6667,80.75814,5.70422,-999.0,0.1,-999.0,no,yes,no,300534062172030,NOMAD,AWI/USIABP,PolarStern,North
2022-08-04T16:59:57Z,2022,17,0,216.7083,216.7083,80.7524,5.70225,-999.0,0.1,-999.0,no,yes,no,300534062172030,NOMAD,AWI/USIABP,PolarStern,North
2022-08-04T18:00:00Z,2022,18,0,216.75,216.75,80.74498,5.68171,-999.0,0.1,-999.0,no,yes,no,300534062172030,NOMAD,AWI/USIABP,PolarStern,North
2022-08-04T19:00:02Z,2022,19,0,216.7917,216.7917,80.73862,5.63522,-999.0,0.1,-999.0,no,yes,no,300534062172030,NOMAD,AWI/USIABP,PolarStern,North
2022-08-04T19:59:57Z,2022,20,0,216.8333,216.8333,80.73462,5.56791,-999.0,0.0,-999.0,no,yes,no,300534062172030,NOMAD,AWI/USIABP,PolarStern,North
2022-08-04T21:00:00Z,2022,21,0,216.875,216.875,80.73373,5.49793,-999.0,0.1,-999.0,no,yes,no,300534062172030,NOMAD,AWI/USIABP,PolarStern,North
2022-08-04T22:00:02Z,2022,22,0,216.9167,216.9167,80.73645,5.43385,-999.0,0.1,-999.0,no,yes,no,300534062172030,NOMAD,AWI/USIABP,PolarStern,North
2022-08-04T22:59:57Z,2022,23,0,216.9583,216.9583,80.73891,5.39371,-999.0,0.1,-999.0,no,yes,no,300534062172030,NOMAD,AWI/USIABP,PolarStern,North
